Погода в Капитоновке

Россия / Хабаровский край     47°40′08″N   135°03′55″E
темп.,
°C
ветер,
м/с
пор.,
м/с
влажн.,
%
обл.,
%
осадки,
мм/ч
давл.,
гПа
погр.,
м
25 июля, вс
вс2501:00+26ююв2267100 0.0 100613
04:00+25ююв227384 0.0 100727
07:00+26ююв35734 0.0 1006119
10:00+32ю3553100 0.0 1006626
13:00+36юз583466 0.0 10051948
16:00+36юз563388 0.0 10041660
19:00+33в1155100 0.0 100449
22:00+24вюв347998 0.0 100559
26 июля, пн
пн2601:00+24ююв3477100 0.0 100578
04:00+23ююв2381100 0.0 100444
07:00+24ююв4975100 0.0 1004208
10:00+30ю455083 0.0 1004694
13:00+35юз3536100 0.0 10031876
16:00+36зюз5534100 0.0 10022083
19:00+31юз2350100 0.0 100253
22:00+27ю335854 0.0 100236
27 июля, вт
вт2701:00+25ю226286 0.0 100220
04:00+24юз226597 0.0 100314
07:00+25ююз226791 0.0 100472
10:00+31ююз234895 0.0 1004576
13:00+34юз2242100 0.0 10031042
16:00+34ю1242100 0.0 10011103
19:00+33всв3549100 0.0 1000557
22:00+27св3772100 0.0 1002149
28 июля, ср
ср2801:00+24св378411 0.0 1001136
04:00+22св3791100 0.0 1002148
07:00+23всв46838 0.0 1002184
10:00+30св33585 0.0 1002509
13:00+36ссв22395 0.0 10001680
16:00+37св443231 0.0 9982797
19:00+31ссв2253100 0.1 99827
22:00+28всв4864100 0.2 998170
29 июля, чт
чт2901:00+24в33825 0.2 99842
04:00+23юв1186100 0.4 99811
07:00+24юв228397 0.0 99878
10:00+31ююз225271 0.1 998624
13:00+36юз4439100 0.0 9961696
16:00+35зюз2444100 0.1 9951726
19:00+23юз5895100 21.7 996219
22:00+21ююв2496100 26.0 998110